Date String (YYYY-MM-DD hh:mm:ss) UTC,Instrument flags,Ambient pressure (hPa),Sample flow (lpm),Bypass flow (lpm),Sample temperature (°C),Ambient temperature (°C),ASC tube jacket temperature (°C),LED temperature (°C),Box temperature (°C),Sample RH (%),Span deviation,Mass concentration (μg/m³),Mass concentration (μg/m³),Mass concentration (μg/m³)
DateTimeUTC,F1_M11,P_M11,Q1_M11,Q2_M11,T1_M11,T2_M11,T3_M11,T4_M11,T5_M11,U1_M11,ZSPAN_M11,X0_M11,X2_M11,X1_M11
2022-01-29 03:00:00,,0831.5,5.00,0.00,24.4,23.7,00.0,33.4,26.2,04.2,0000.0,0001.15,0000.78,0000.64
2022-01-29 03:01:00,,0831.5,5.01,0.00,24.4,23.7,00.0,33.4,26.2,04.2,0000.0,0001.14,0000.77,0000.64
2022-01-29 03:02:00,,0831.6,5.00,0.00,24.4,23.7,00.0,33.4,26.2,04.2,0000.0,0001.09,0000.75,0000.64
2022-01-29 03:03:00,,0831.6,5.00,0.00,24.4,23.7,00.0,33.4,26.2,04.3,0000.0,0001.12,0000.77,0000.65
2022-01-29 03:04:00,,0831.6,5.00,0.00,24.4,23.7,00.0,33.4,26.2,04.1,0000.0,0001.11,0000.77,0000.65
2022-01-29 03:05:00,,0831.6,5.00,0.00,24.4,23.7,00.0,33.4,26.2,04.2,0000.0,0001.15,0000.79,0000.66
2022-01-29 03:06:00,,0831.6,5.00,0.00,24.4,23.7,00.0,33.4,26.2,04.2,0000.0,0001.20,0000.81,0000.67
2022-01-29 03:07:00,,0831.6,4.99,0.00,24.4,23.7,00.0,33.3,26.1,04.2,0000.0,0001.21,0000.82,0000.68
2022-01-29 03:08:00,,0831.6,4.99,0.00,24.4,23.7,00.0,33.3,26.2,04.3,0000.0,0001.44,0000.80,0000.69
2022-01-29 03:09:00,,0831.6,5.01,0.00,24.4,23.7,00.0,33.3,26.2,04.3,0000.0,0002.53,0000.82,0000.70
2022-01-29 03:10:00,,0831.6,5.00,0.00,24.3,23.7,00.0,33.3,26.1,04.3,0000.0,0002.58,0000.85,0000.71
2022-01-29 03:11:00,,0831.6,5.00,0.00,24.3,23.7,00.0,33.3,26.1,04.3,0000.0,0002.60,0000.86,0000.71
2022-01-29 03:12:00,,0831.6,5.00,0.00,24.3,23.7,00.0,33.3,26.1,04.3,0000.0,0002.64,0000.87,0000.72
2022-01-29 03:13:00,,0831.6,5.00,0.00,24.3,23.6,00.0,33.3,26.1,04.3,0000.0,0002.63,0000.88,0000.72
2022-01-29 03:14:00,,0831.6,4.99,0.00,24.3,23.7,00.0,33.3,26.1,04.3,0000.0,0002.65,0000.89,0000.73
2022-01-29 03:15:00,,0831.6,4.98,0.00,24.3,23.6,00.0,33.3,26.1,04.4,0000.0,0002.78,0000.90,0000.72
2022-01-29 03:16:00,,0831.6,5.00,0.00,24.3,23.7,00.0,33.3,26.1,04.4,0000.0,0002.76,0000.89,0000.72
2022-01-29 03:17:00,,0831.6,5.00,0.00,24.3,23.7,00.0,33.3,26.1,04.5,0000.0,0002.75,0000.88,0000.72
2022-01-29 03:18:00,,0831.6,5.00,0.00,24.3,23.6,00.0,33.3,26.1,04.7,0000.0,0002.75,0000.88,0000.72
2022-01-29 03:19:00,,0831.6,5.00,0.00,24.3,23.6,00.0,33.3,26.1,04.8,0000.0,0002.75,0000.92,0000.73
2022-01-29 03:20:00,,0831.6,5.01,0.00,24.3,23.6,00.0,33.3,26.1,04.6,0000.0,0001.52,0000.94,0000.73
2022-01-29 03:21:00,,0831.6,5.01,0.00,24.3,23.6,00.0,33.3,26.1,04.3,0000.0,0001.56,0000.93,0000.72
2022-01-29 03:22:00,,0831.6,5.00,0.00,24.3,23.6,00.0,33.3,26.1,04.4,0000.0,0001.60,0000.93,0000.72
2022-01-29 03:23:00,,0831.6,4.99,0.00,24.3,23.6,00.0,33.3,26.1,04.6,0000.0,0001.73,0000.97,0000.73
2022-01-29 03:24:00,,0831.6,4.99,0.00,24.3,23.6,00.0,33.3,26.1,05.1,0000.0,0001.84,0001.01,0000.75
2022-01-29 03:25:00,,0831.5,5.00,0.00,24.3,23.6,00.0,33.3,26.1,05.0,0000.0,0001.87,0001.02,0000.77
2022-01-29 03:26:00,,0831.4,5.00,0.00,24.3,23.6,00.0,33.3,26.0,05.0,0000.0,0001.85,0001.05,0000.80
2022-01-29 03:27:00,,0831.4,5.00,0.00,24.3,23.6,00.0,33.3,26.0,05.2,0000.0,0001.91,0001.11,0000.83
2022-01-29 03:28:00,,0831.4,5.00,0.00,24.3,23.6,00.0,33.3,26.1,05.5,0000.0,0002.04,0001.17,0000.87
2022-01-29 03:29:00,,0831.4,5.01,0.00,24.2,23.6,00.0,33.3,26.0,05.4,0000.0,0002.12,0001.22,0000.90
2022-01-29 03:30:00,,0831.5,5.00,0.00,24.2,23.6,00.0,33.3,26.0,05.3,0000.0,0002.14,0001.24,0000.92
2022-01-29 03:31:00,,0831.4,4.99,0.00,24.2,23.5,00.0,33.2,26.0,05.6,0000.0,0002.05,0001.22,0000.95
2022-01-29 03:32:00,,0831.4,5.01,0.00,24.2,23.5,00.0,33.2,26.0,05.5,0000.0,0002.10,0001.27,0000.99
2022-01-29 03:33:00,,0831.4,5.01,0.00,24.2,23.5,00.0,33.2,26.0,05.2,0000.0,0002.08,0001.30,0001.02
2022-01-29 03:34:00,,0831.4,5.01,0.00,24.2,23.5,00.0,33.2,26.0,05.0,0000.0,0002.02,0001.29,0001.03
2022-01-29 03:35:00,,0831.4,4.98,0.00,24.2,23.5,00.0,33.2,26.0,04.7,0000.0,0001.93,0001.26,0001.03
2022-01-29 03:36:00,,0831.4,5.00,0.00,24.2,23.5,00.0,33.2,26.0,04.4,0000.0,0001.97,0001.24,0001.00
2022-01-29 03:37:00,,0831.4,5.00,0.00,24.2,23.5,00.0,33.2,26.0,04.2,0000.0,0001.88,0001.20,0000.97
2022-01-29 03:38:00,,0831.4,5.00,0.00,24.2,23.5,00.0,33.2,26.0,04.2,0000.0,0001.80,0001.14,0000.94
2022-01-29 03:39:00,,0831.4,5.00,0.00,24.2,23.5,00.0,33.2,26.0,04.4,0000.0,0001.74,0001.10,0000.91
2022-01-29 03:40:00,,0831.4,5.00,0.00,24.2,23.5,00.0,33.2,26.0,05.3,0000.0,0001.83,0001.13,0000.90
2022-01-29 03:41:00,,0831.4,5.01,0.00,24.1,23.5,00.0,33.2,25.9,05.4,0000.0,0001.88,0001.15,0000.90
2022-01-29 03:42:00,,0831.4,5.00,0.00,24.1,23.4,00.0,33.2,25.9,05.4,0000.0,0001.90,0001.17,0000.89
2022-01-29 03:43:00,,0831.4,5.01,0.00,24.1,23.4,00.0,33.2,25.9,05.4,0000.0,0001.85,0001.14,0000.88
2022-01-29 03:44:00,,0831.4,5.00,0.00,24.1,23.4,00.0,33.2,25.9,05.4,0000.0,0001.86,0001.15,0000.89
2022-01-29 03:45:00,,0831.4,5.00,0.00,24.1,23.4,00.0,33.1,25.9,05.4,0000.0,0001.86,0001.16,0000.90
2022-01-29 03:46:00,,0831.4,5.01,0.00,24.1,23.3,00.0,33.1,25.8,05.3,0000.0,0001.91,0001.18,0000.90
2022-01-29 03:47:00,,0831.4,5.00,0.00,24.1,23.3,00.0,33.1,25.8,05.4,0000.0,0001.87,0001.21,0000.93
2022-01-29 03:48:00,,0831.4,4.98,0.00,24.0,23.3,00.0,33.1,25.8,05.4,0000.0,0001.92,0001.24,0000.96
2022-01-29 03:49:00,,0831.4,5.00,0.00,24.0,23.3,00.0,33.1,25.7,05.3,0000.0,0001.93,0001.26,0000.99
2022-01-29 03:50:00,,0831.4,5.01,0.00,24.0,23.3,00.0,33.1,25.7,05.4,0000.0,0001.92,0001.27,0001.00
2022-01-29 03:51:00,,0831.4,5.00,0.00,24.0,23.3,00.0,33.1,25.7,05.2,0000.0,0001.98,0001.28,0001.01
2022-01-29 03:52:00,,0831.4,5.00,0.00,24.0,23.3,00.0,33.1,25.7,05.0,0000.0,0001.96,0001.26,0001.00
2022-01-29 03:53:00,,0831.4,4.98,0.00,24.0,23.3,00.0,33.1,25.7,04.8,0000.0,0001.85,0001.20,0000.98
2022-01-29 03:54:00,,0831.4,5.00,0.00,24.0,23.3,00.0,33.1,25.7,04.6,0000.0,0001.76,0001.15,0000.95
2022-01-29 03:55:00,,0831.4,5.00,0.00,24.0,23.3,00.0,33.0,25.7,04.5,0000.0,0001.71,0001.11,0000.90
2022-01-29 03:56:00,,0831.4,5.00,0.00,24.0,23.3,00.0,33.0,25.7,04.5,0000.0,0001.63,0001.06,0000.87
2022-01-29 03:57:00,,0831.4,5.01,0.00,24.0,23.3,00.0,33.0,25.7,04.5,0000.0,0001.59,0001.04,0000.85
2022-01-29 03:58:00,,0831.4,5.01,0.00,24.0,23.3,00.0,33.0,25.7,04.5,0000.0,0001.50,0001.00,0000.82
2022-01-29 03:59:00,,0831.4,4.99,0.00,23.9,23.3,00.0,33.0,25.6,04.4,0000.0,0001.54,0001.00,0000.79
